FREGAT DEB

基本信息
目录编号:
46619
目录名称:
FREGAT DEB
国际标识:
2011-037MK
轨道中心:
EARTH
物体状态:
在轨
发射日期:
2011-07-18 UTC
轨道信息
数据来源: 国际轨道数据
星历时间: 2026-07-13T16:34:06+0800
半长轴: 7854.165km
偏心率: 0.1082489
轨道倾角: 51.012°
近地点辐角: 163.667°
升交点赤经: 340.260°
平近点角: 200.214°
近地点: 625.823km
远地点: 2326.233km
周期: 115.454分钟
每日圈数: 12.472479
详细信息
发射场:
TTMTR
轨道高度:
LEO
数据来源:
AOE Integration Group
参考系:
TEME
时间系统:
UTC
历元类型:
SGP4
2D轨道图
3D轨道图
轨道高度分析图
轨道倾角分析图
轨道综合分析图
查看轨道综合分析图